www.pogodaiklimat.ru

Погода и климат >> Архив погоды >> Антарктида >> Эсперанса


ПОГОДА на Эсперансе

  • Прогноз погоды на Эсперансе
  • Монитор погоды на Эсперансе

АРХИВ ПОГОДЫ на Эсперансе

Время (UTC), дата Ветер
(напр.,м/с)
 
Видим.   Явления Облачность Т
(С)
Тd
(С)
f
(%)
Тe
(С)
Тes
(С)
Комфортность P
(гПа)
Po
(гПа)
Тmin
(С)
Tmax
(С)
R
(мм)
R24
(мм)
S
(см)
12 16.07 С 1 400 м слаб. дождь со снегом {туман} туман 10/10 120 м
[St]
-1.0 -1.1 99 -3 -3 994.9 991.8 -2.0 -0.7 3 2
15 16.07 В 3 400 м слаб. снег {туман} туман 10/10 120 м
[St]
-2.4 -2.7 98 -7 -7 992.4 989.4
18 16.07 Ю 10 400 м слаб. снег {туман} туман 10/10 120 м
[St]
-10.6 -12.8 84 -21 -21 990.3 987.3 2
21 16.07 Ю 12 800 м слаб. снег {метель} туман 10/10 240 м
[St]
-11.6 -13.0 89 -24 -24 988.8 985.8
00 17.07 Ю 14 800 м слаб. снег {метель} туман 10/10 240 м
[St]
-12.2 -13.7 89 -25 -25 987.9 984.9 -12.2 -1.0 1
03 17.07 Ю 13 800 м слаб. снег {метель} туман 10/10 240 м
[St]
-12.6 -15.2 81 -25 -25 986.6 983.6
06 17.07 Ю 17 500 м слаб. снег {метель} туман 10/10 240 м
[St]
-12.4 -15.0 81 -26 -26 985.3 982.2 0.0
09 17.07 Ю 17 500 м слаб. снег {метель} туман 10/10 240 м
[St]
-12.8 -14.3 88 -27 -27 985.5 982.4
12 17.07 Ю 13 4000 м позёмок {снег} 9/9 240 м
[St]
-11.4 -13.8 82 -23 -23 987.0 983.8 -12.8 -11.4 0.0
15 17.07 Ю 8 10 км {метель} 10/10 300 м
[St]
-10.6 -13.9 77 -21 -21 988.4 985.3
18 17.07 Ю 6 4000 м слаб. снег {метель} 10/10 300 м
[St]
-11.2 -15.7 69 -20 -20 989.4 986.2 0.0
21 17.07 Ю 6 3000 м слаб. снег 10/10 240 м
[St]
-12.6 -15.2 81 -22 -22 990.4 987.3
00 18.07 штиль 0 4000 м слаб. снег туман 8/5 240 м
[St Ac As]
-13.4 -15.0 88 -13 -13 993.8 990.6 -13.4 -9.4 0.6
03 18.07 Ю 2 5000 м в посл. час снег туман 6/3 240 м
[St As trans]
-14.8 -17.8 78 -20 -20 995.2 992.1
06 18.07 Ю 2 10 км {снег} 3/3 360 м
[St]
-15.4 -17.2 86 -19 -19 997.6 994.5 0.0
09 18.07 ЮВ 4 10 км 4/0
[Cs]
-14.6 -17.6 78 -22 -22 999.5 996.2
12 18.07 ЮВ 4 10 км 5/0
[Cs]
-16.0 -19.2 76 -24 -24 1001.6 998.4 -16.4 -13.4 0.6
15 18.07 З 1 10 км 9/0
[Cs]
-16.2 -19.5 76 -19 -19 1002.1 998.9
18 18.07 З 2 10 км 10/10 240 м
[St]
-14.0 -16.8 79 -19 -19 1002.0 998.8
21 18.07 ЮЗ 1 4000 м слаб. снег 10/10 240 м
[St]
-13.4 -17.4 72 -16 -16 1001.9 998.6
00 19.07 Ю 5 4000 м слаб. снег туман 10/10 240 м
[St]
-13.8 -16.6 79 -22 -22 1001.8 998.6 -17.2 -12.9 0.2
03 19.07 Ю 4 10 км в посл. час снег 10/8 300 м
[St As trans]
-13.4 -16.1 80 -21 -21 1001.7 998.5
06 19.07 ЮЗ 3 4000 м слаб. снег 10/8 240 м
[St As trans]
-14.2 -15.9 87 -21 -21 1001.2 998.0 0.0
09 19.07 В 3 4000 м слаб. снег 10/8 240 м
[St As trans]
-14.4 -17.3 79 -20 -20 1001.4 998.2
12 19.07 С 2 4000 м слаб. снег 10/10 240 м
[St]
-15.2 -17.0 86 -20 -20 1000.9 997.7 -15.2 -13.0 0.0
15 19.07 Ю 4 4000 м дымка {снег} 10/10 150 м
[St]
-15.5 -17.9 82 -23 -23 999.9 996.6
18 19.07 Ю 3 10 км {снег} 9/3 150 м
[St Cs]
-16.4 -18.3 85 -23 -23 999.3 996.1 0.0
21 19.07 ЮВ 3 10 км 9/8 150 м
[St Cs]
-18.0 -20.0 84 -25 -25 998.9 995.7
00 20.07 ЮЗ 1 2000 м дымка 8/0
[Ac und Cs]
-19.2 -21.4 83 -22 -22 997.8 994.6 -19.2 -14.3
03 20.07 Ю 3 2000 м дымка 9/0
[As trans Cs]
-18.0 -20.0 84 -25 -25 996.7 993.4
06 20.07 ЮЗ 2 10 км 9/0
[As trans Cs]
-12.7 -14.8 84 -17 -17 994.7 991.4
09 20.07 ЮВ 1 10 км 9/0
[As trans Cs]
-11.0 -12.3 90 -13 -13 992.9 989.8
12 20.07 ЮВ 5 10 км 9/5 240 м
[St Cs]
-11.0 -12.3 90 -19 -19 991.3 988.2 -21.0 -10.9 0.0
15 20.07 ЮВ 7 10 км 8/4 240 м
[St Cs]
-11.8 -14.2 82 -21 -21 989.7 986.6
18 20.07 СВ 3 2000 м дымка 8/3 240 м
[St Cs]
-13.2 -15.9 80 -20 -20 987.4 984.2
21 20.07 З 3 10 км 9/3 300 м
[St Cs]
-14.0 -16.8 79 -20 -20 986.4 983.3
00 21.07 ЮЗ 3 10 км 9/5 300 м
[St Cs]
-12.0 -14.5 82 -18 -18 985.5 982.4 -16.2 -11.3
03 21.07 ЮВ 2 10 км 6/3 300 м
[St Cs]
-11.6 -14.0 82 -16 -16 984.6 981.4
06 21.07 Ю 3 10 км {снег} 6/4 300 м
[St Cs]
-11.0 -13.3 83 -16 -16 983.9 980.8
09 21.07 ЮЗ 2 10 км 9/3 300 м
[St Ac As Cs]
-11.0 -12.3 90 -15 -15 982.9 979.8
12 21.07 ЮЗ 2 10 км 9/9 600 м
[Sc]
-11.8 -13.2 89 -15 -15 982.5 979.4 -12.0 -11.0
15 21.07 С 1 4000 м осадки на расстоянии 9/5 150 м
[St Cs]
-9.8 -11.0 91 -12 -12 982.1 979.0
18 21.07 ЮЗ 3 2000 м дымка 9/3 150 м
[St Cs]
-9.8 -11.0 91 -15 -15 980.4 977.3
21 21.07 штиль 0 10 км 8/8 450 м
[Sc]
-10.0 -11.2 91 -10 -10 979.7 976.6
00 22.07 Ю 3 10 км 5/0
[Cs]
-10.2 -12.4 84 -16 -16 980.0 976.9 -11.8 -9.0
03 22.07 штиль 0 10 км 5/0
[Ac As Cs]
-11.8 -13.2 89 -12 -12 979.7 976.6
06 22.07 С 1 10 км 1/0
[Cs]
-12.8 -14.3 88 -15 -15 978.8 975.7
09 22.07 Ю 4 10 км ясно -12.8 -14.3 88 -20 -20 979.0 975.8
12 22.07 Ю 2 10 км 3/3 300 м
[St]
-14.8 -19.2 69 -19 -19 980.2 977.0 -14.8 -10.0
15 22.07 штиль 0 5000 м дымка 5/3 300 м
[St Cs]
-14.0 -16.8 79 -14 -14 981.3 978.2
18 22.07 ЮВ 1 10 км 8/3 360 м
[St Ac As Cs]
-12.6 -15.2 81 -15 -15 981.5 978.4
21 22.07 штиль 0 10 км 3/3 360 м
[St]
-15.4 -20.0 68 -15 -15 983.8 980.6
00 23.07 З 1 10 км ясно -17.4 -19.4 84 -20 -20 985.4 982.2 -18.7 -12.3
03 23.07 Ю 2 10 км ясно -16.8 -20.2 75 -21 -21 986.8 983.7
06 23.07 ЮЗ 1 10 км ясно -16.6 -18.5 85 -19 -19 988.3 985.2

 

Местоположение метеостанции Эсперанса (Антарктида): широта -63.40 долгота -56.98 высота над уровнем моря 24 м.

В архиве по умолчанию представлена погода на Эсперансе за последнюю неделю. Архивные данные за месяц целиком и за предыдущие месяцы, начиная с января 2011 года, Вы можете получить, выбрав интересующий диапазон дат из раскрывающегося списка и нажав кнопку "Ввод!".


*Определитесь, кто Вы:
робот инопланетянин человек

Внимание! Время в таблицах - всемирное. Для получения местного времени необходимо прибавить поправку, которая равна 0 ч.

Смотрите также архив погоды в соседних городах и на ближайших метеорологических станциях:

Погода на Бернардо О`Хиггинс (Антарктида) (47 км)
Погода на Марамбио (Антарктида) (93 км)
Погода на Carlini Base (Антарктида) (155 км)
Погода на King Sejong (Антарктида) (160 км)
Погода на Dinamet-Уругвай (Антарктида) (165 км)
Погода на Беллинсгаузене (Антарктида) (166 км)
Погода на Чанчэн (Антарктида) (166 км)
Погода на Captain Arturo Prat Base (Антарктида) (169 км)
Погода на Frei Chi-Base (Антарктида) (170 км)
Погода на Острове Хуана Карлоса (Антарктида) (191 км)

Пояснения к столбцам:

Ветер - указаны скорость ветра в м/с - средняя за 10 мин, порывы в срок и между сроками (в фигурных скобках) и направление, откуда дует ветер: С - северный, СВ - северо-восточный, В - восточный, ЮВ - юго-восточный, Ю - южный, ЮЗ - юго-западный, З - западный, СЗ - северо-западный.
Видимость - горизонтальная дальность видимости в метрах или километрах. При видимости от 1 до 10 км при отсутствии осадков обычно наблюдается дымка, при ухудшении видимости до 1 км и менее - туман. В сухую погоду видимость может ухудшаться дымом, пылью или мглою.
Явления - указаны атмосферные явления, наблюдавшиеся в срок или в последний час перед сроком; фигурными скобками обозначены явления, наблюдавшиеся между сроками (за 1-3 часа до срока); квадратными скобками обозначены град или гололедные отложения с указанием их диаметра в мм.
Облачность - указаны через наклонную черту общая и нижняя облачность в баллах и высота нижней границы облаков в метрах; квадратными скобками обозначены формы облаков: Ci - перистые, Cs - перисто-слоистые, Cc - перисто-кучевые, Ac - высококучевые, As - высокослоистые, Sc - слоисто-кучевые, Ns - слоисто-дождевые, Cu - кучевые, Cb - кучево-дождевые. Подробнее классификацию облаков см. в Атласе облаков (PDF).
T - Температура воздуха - температура, измеренная на высоте 2 м над землей.
Td - Температура точки росы - температура, при понижении до которой содержащийся в воздухе водяной пар достигнет насыщения.
f - Относительная влажность воздуха - влажноcть воздуха, измеренная на высоте 2 м над землей.
Te - Эффективная температура - температура, которую ощущает одетый по сезону человек в тени. Характеристика душности погоды. При расчете учитывается влияние влажности воздуха и скорости ветра на теплоощущения человека.
Tes - Эффективная температура на солнце - температура, которую ощущает человек, с поправкой на солнечный нагрев. Характеристика знойности погоды. Зависит от высоты солнца над горизонтом, облачности и скорости ветра. Ночью, в пасмурную погоду, а также при ветре 12 м/с и более поправка равна нулю.
P - Атмосферное давление - приведенное к уровню моря атмосферное давление.
Po - Атмосферное давление - измеренное на уровне метеостанции атмосферное давление.
Tmin - Минимальная температура - минимум температуры воздуха на высоте 2 м над землей.
Tmax - Максимальная температура - максимум температуры воздуха на высоте 2 м над землей.
R - Количество осадков - Количество выпавших осадков за период времени, мм. При наведении курсора мыши на число - период времени, за который выпало указанное количество осадков.
R24 - Количество осадков - Количество выпавших осадков за 24 часа, мм.
S - Снежный покров - Высота снежного покрова, см. При наведении курсора мыши на число - состояние снежного покрова и степень покрытия местности в баллах.